Tracking 29892 objects as of 21-Nov-2024
HD Live streaming from Space Station
objects crossing your sky now

SL-16 DEB

Track SL-16 DEB now!
10-day predictions


NORAD ID: 31799
Int'l Code: 2007-029F
Perigee: 851.0 km
Apogee: 1,189.5 km
Inclination: 70.9 °
Period: 105.4 minutes
Semi major axis: 7391 km
RCS: 0.0827 m2 (small)
Launch date: June 29, 2007
Source: Commonwealth of Independent States (former USSR) (CIS)
Launch site: TYURATAM MISSILE AND SPACE COMPLEX (TTMTR)

Note: This is SATELLITE DEBRIS
Your satellite tracking list
Your tracking list is empty




NASA's NSSDC Master Catalog

Two Line Element Set (TLE):
1 31799U 07029F   24325.84213258  .00000367  00000-0  41519-3 0  9995
2 31799  70.9453  20.7780 0228986 244.8613 235.2612 13.66249983867076
Source of the keplerian elements: AFSPC